Vorticity
11 12 8 9 6 7 7 6 5 6 2 19 20 11 8 11 12 12 10 8 8 8
11 12 11 8 5 6 7 7 10 5 9 10 22 25 18 12 12 11 9 10 12 11
9 10 10 12 10 8 7 7 8 7 8 8 7 16 14 17 9 8 15 17 12 17
9 9 9 8 9 10 10 10 10 8 7 8 10 7 7 17 15 10 12 14 16 18
7 8 8 8 8 9 10 10 9 8 8 8 8 9 11 10 8 6 5 12 10 31
6 7 7 8 9 8 9 10 10 11 11 10 9 9 9 11 12 13 11 11 6 7
6 7 5 7 9 8 8 9 9 9 9 10 12 12 12 11 11 12 14 16 15 12
6 7 5 6 8 8 7 7 7 8 9 10 10 10 11 12 12 11 11 11 12 13
7 6 5 5 8 8 6 6 7 8 9 9 10 10 10 11 10 11 11 11 11 11
7 5 5 5 9 8 7 6 6 8 8 12 12 10 9 8 8 9 9 10 11 11
8 6 6 8 17 7 7 6 6 7 11 8 7 8 7 8 11 11 10 10 11 11
6 6 8 1 18 7 6 6 7 9 9 8 8 8 8 10 11 11 13 10 10 13
-2 10 -4 2 16 13 6 5 6 10 8 7 11 14 13 10 9 9 9 9 9 10
4 12 6 8 9 14 6 5 7 9 8 14 17 14 12 8 8 8 8 8 9 10
Height
3068 3065 3061 3057 3054 3051 3048 3045 3042 3039 3036 3033 3029 3027 3024 3022 3021 3018 3016 3014 3013 3012
3064 3060 3057 3053 3049 3047 3044 3040 3038 3034 3030 3026 3023 3020 3018 3016 3014 3012 3010 3009 3006 3004
3059 3056 3053 3050 3046 3043 3040 3036 3033 3029 3025 3021 3017 3014 3011 3009 3007 3006 3004 3002 2999 2997
3055 3052 3048 3045 3042 3039 3036 3033 3029 3025 3021 3018 3014 3010 3008 3004 3002 2999 2996 2993 2991 2989
3050 3048 3045 3042 3039 3036 3032 3028 3024 3021 3018 3014 3010 3006 3003 3000 2996 2993 2990 2987 2983 2980
3045 3042 3040 3037 3034 3030 3027 3023 3020 3016 3012 3008 3005 3002 2998 2994 2990 2986 2983 2980 2976 2974
3039 3037 3034 3031 3029 3026 3022 3019 3015 3011 3007 3004 3000 2996 2992 2988 2985 2981 2978 2974 2971 2968
3034 3032 3029 3026 3023 3020 3017 3014 3011 3007 3003 2998 2994 2990 2987 2983 2980 2976 2972 2969 2965 2962
3028 3026 3024 3021 3018 3015 3012 3009 3005 3002 2998 2994 2990 2986 2982 2978 2974 2971 2967 2963 2960 2957
3021 3019 3018 3015 3013 3010 3007 3004 3000 2997 2994 2989 2985 2981 2978 2974 2970 2966 2962 2958 2954 2951
3015 3013 3010 3008 3006 3003 3001 2999 2995 2992 2988 2984 2981 2977 2972 2969 2965 2961 2957 2953 2949 2945
3007 3005 3003 3001 2999 2997 2995 2993 2990 2986 2982 2979 2975 2972 2968 2964 2960 2955 2952 2948 2943 2940
2999 2998 2997 2994 2993 2991 2988 2986 2983 2980 2977 2973 2969 2966 2963 2959 2955 2951 2946 2942 2939 2935
2990 2990 2989 2987 2985 2983 2982 2980 2977 2974 2971 2967 2963 2960 2957 2954 2951 2947 2942 2938 2934 2931